الكل
Malmen Air Base Airport (Linkoping) ESCF حالة الطقس
|
Linkoping (ESCF)
سماء صافية
شديد الرياح |
|
23 °C |
توقع منطقة محطة المطارESCF
| Date | Time (CEST) | Flight Rules | Wind Dir. | Speed | Type | Height AGL (ft) | Visibility | Remarks | ||||||
|---|---|---|---|---|---|---|---|---|---|---|---|---|---|---|
محفوظات أحدث تقرير روتيني عن حالة الطقس من أجل الطيران (الميتار )ESCF
| Date | Time (CEST) | Flight Rules | Wind Dir. | Speed | Type | Height AGL (ft) | Visibility | Temp (°C) | Temp (°F) | Dew Point (°C) | Dew Point (°F) | Rel. Humid. | Pressure | Density Altitude | Remarks |
|---|---|---|---|---|---|---|---|---|---|---|---|---|---|---|---|
| 02-ماي | 16:50 | VFR | 260° | 15 kt | 10000 meters | 23° | 73° | 5° | 41° | 31% | 1010 mb | 1,363 ft | |||
| 02-ماي | 16:20 | VFR | 250° | 14 kt | 10000 meters | 23° | 73° | 5° | 41° | 31% | 1011 mb | 1,333 ft | |||
| 02-ماي | 15:50 | VFR | 240° | 16 kt | 10000 meters | 23° | 73° | 6° | 42° | 33% | 1011 mb | 1,333 ft | |||
| 02-ماي | 15:20 | VFR | 240° | 14 kt | 10000 meters | 23° | 73° | 6° | 42° | 33% | 1011 mb | 1,333 ft | |||
| 02-ماي | 14:50 | VFR | 240° | 16 kt | 10000 meters | 23° | 73° | 6° | 42° | 33% | 1012 mb | 1,304 ft | |||
| 02-ماي | 14:20 | VFR | 250° | 16 kt | 10000 meters | 23° | 73° | 6° | 42° | 33% | 1012 mb | 1,304 ft | |||
| 02-ماي | 13:50 | VFR | 240° | 17 kt | 10000 meters | 23° | 73° | 6° | 42° | 33% | 1013 mb | 1,274 ft | |||
| 02-ماي | 13:20 | VFR | 240° | 16 kt | 10000 meters | 22° | 71° | 5° | 41° | 33% | 1013 mb | 1,154 ft | |||
| 02-ماي | 12:50 | VFR | 250° | 19 kt | 10000 meters | 22° | 71° | 5° | 41° | 33% | 1014 mb | 1,125 ft | |||
| 02-ماي | 12:20 | VFR | 230° | 14 kt | 10000 meters | 22° | 71° | 6° | 42° | 35% | 1014 mb | 1,125 ft | Wind gusting to 24 KT | ||
| 02-ماي | 11:50 | VFR | 220° | 16 kt | 10000 meters | 22° | 71° | 6° | 42° | 35% | 1014 mb | 1,125 ft | |||
| 02-ماي | 11:20 | VFR | 230° | 12 kt | 10000 meters | 21° | 69° | 6° | 42° | 38% | 1014 mb | 1,005 ft | |||
| 02-ماي | 10:50 | VFR | 230° | 11 kt | 10000 meters | 20° | 68° | 7° | 44° | 43% | 1015 mb | 855 ft | Wind gusting to 26 KT | ||
| 02-ماي | 10:20 | VFR | 220° | 11 kt | 10000 meters | 19° | 66° | 7° | 44° | 46% | 1016 mb | 706 ft | |||
| 02-ماي | 09:50 | VFR | 220° | 11 kt | 10000 meters | 18° | 64° | 7° | 44° | 49% | 1016 mb | 586 ft | |||
| 02-ماي | 09:20 | VFR | 220° | 10 kt | 10000 meters | 17° | 62° | 7° | 44° | 52% | 1016 mb | 466 ft | |||
| 02-ماي | 08:50 | VFR | 220° | 11 kt | 10000 meters | 15° | 59° | 6° | 42° | 55% | 1016 mb | 226 ft | |||
| 02-ماي | 08:20 | VFR | 230° | 9 kt | 10000 meters | 14° | 57° | 6° | 42° | 58% | 1017 mb | 76 ft | |||
| 02-ماي | 07:50 | VFR | 220° | 6 kt | 10000 meters | 13° | 55° | 6° | 42° | 62% | 1017 mb | -44 ft | |||
| 02-ماي | 07:20 | VFR | 220° | 5 kt | 10000 meters | 11° | 51° | 6° | 42° | 71% | 1017 mb | -284 ft | |||
| 02-ماي | 06:50 | VFR | 230° | 5 kt | 10000 meters | 10° | 50° | 5° | 41° | 71% | 1017 mb | -404 ft | |||
| 02-ماي | 06:20 | VFR | 220° | 6 kt | 10000 meters | 9° | 48° | 4° | 39° | 71% | 1017 mb | -524 ft | |||
| 02-ماي | 05:50 | VFR | 220° | 6 kt | 10000 meters | 8° | 46° | 4° | 39° | 76% | 1018 mb | -674 ft | |||
| 02-ماي | 05:20 | VFR | 220° | 6 kt | 10000 meters | 6° | 42° | 3° | 37° | 81% | 1018 mb | -914 ft |
تسجيل الدخول
| مُتصفحك غير مُدعَّم. قم بترقية متصفحك |
